map of BZV home
Great Circle Mapper logo
BZV - Airport
Location
City:  Brazzaville, Congo (Republic of)
Name:Maya Maya
ICAO / IATA:FCBB / BZV

Details
Type:Airport (Aerodrome, Airfield)
Use:Public/Civil
Latitude:415'02"S (-4.250499)
Longitude:1515'05"E (15.251500)
Elevation:1048 ft (319 m)
Variation:1.63W (WMM2015 magnetic declination)
0.15 annual change
Runways:2
Longest:10827 × 148 ft (3300 × 45 m)

Time
Time Zone:UTC+1
Local Time:

Weather
METAR:FCBB 130300Z 28003KT 9000 FEW020 25/23 Q1012 NOSIG
TAF:FCBB 122300Z 1300/1406 24005KT 9000 FEW015
BECMG 1311/1313 FEW020 FEW030CB
BECMG 1319/1321 SCT015

Related Locations
Nearby:
Farthest:PLPA: 12228 mi / 19679 km
Palmyra Island Atoll [Palmyra Airport (Cooper)], UM

Find:

   beyond  
but within

Other Information
Maps:
NOTAMs:
Links:
Sources:

  
flag of Congo (Republic of)   

Sectional Chart

Flight Planning
at skyvector.com

Satellite Image

Google Maps Satellite view

 

Copyright © 2004-2016 Karl L. Swartz. All rights reserved.
The Great Circle Mapper name and logo are trademarks of the Great Circle Mapper.
All other trademarks mentioned herein belong to their respective owners.
Please see credits for attibutions and further copyright information.

  Follow gcmap on Facebook Follow gcmap on Twitter Follow gcmap on Google+ GCmap on LinkedIn

hCard Microformat

Geo Microformat